Regional Weather Roundup
Issued by NWS

Home | Current Version | Previous Version | Graphics & Text | Print | Product List | Glossary On
Versions: 1 2 3 4 5 6 7 8 9 10 11 12 13 14 15 16 17 18 19 20 21 22 23 24 25 26 27 28 29 30 31 32 33 34 35 36 37 38 39 40 41 42 43 44 45 46 47 48 49 50
000
ASUS43 KFSD 260902
RWRSD

WEATHER ROUNDUP FOR SOUTH DAKOTA
NATIONAL WEATHER SERVICE SIOUX FALLS SD
300 AM CST SUN FEB 26 2017

NOTE: "FAIR" INDICATES FEW OR NO CLOUDS BELOW 12,000 FEET WITH NO
SIGNIFICANT WEATHER AND/OR OBSTRUCTIONS TO VISIBILITY.


SDZ001>005-009-010-012>017-261000-
NORTHWEST AND NORTH CENTRAL SOUTH DAKOTA

CITY           SKY/WX    TMP DP  RH WIND       PRES   REMARKS
BUFFALO          N/A     18  13  80 W13       29.59S WCI   5
FAITH            N/A     19  17  92 W8        29.70R WCI   9
MOBRIDGE       CLEAR     23  17  78 NW7       29.68R WCI  15
$$

SDZ012>016-024>037-041>051-057-063-072>074-261000-
SOUTHWEST AND SOUTH CENTRAL SOUTH DAKOTA

CITY           SKY/WX    TMP DP  RH WIND       PRES   REMARKS
RAPID CTY ARPT CLEAR     16   8  71 W8        29.73R WCI   5
PIERRE         CLEAR     25  22  88 W12       29.73R WCI  14
CUSTER         CLEAR     15   4  61 NW6       29.65R WCI   6
ELLSWORTH AFB  CLEAR     15   8  74 W9        29.71S WCI   3
PHILIP         CLEAR     18  16  92 NW6       29.76R WCI  10
PINE RIDGE     CLEAR     14   6  70 SW8       29.78R WCI   3
SPEARFISH      FAIR      23  10  58 W12       29.69R WCI  12
WINNER         FAIR      21  12  68 W10       29.75R WCI  10
$$

SDZ004>011-016>023-039-040-261000-
NORTHEAST SOUTH DAKOTA

CITY           SKY/WX    TMP DP  RH WIND       PRES   REMARKS
ABERDEEN       CLEAR     20  17  88 SW7       29.70F WCI  11
WATERTOWN      CLOUDY    22  21  96 SW9       29.69R WCI  12
BROOKINGS      CLEAR     19  17  92 S10       29.71S WCI   7
SISSETON         N/A     27  23  85 NW3       29.68S
$$

SDZ017-020-022-023-036>040-048>070-261000-
SOUTHEAST SOUTH DAKOTA

CITY           SKY/WX    TMP DP  RH WIND       PRES   REMARKS
SIOUX FALLS    CLEAR     20  16  84 SW5       29.75F WCI  13
HURON          MOCLDY    24  22  91 SW7       29.73R WCI  16
CHAMBERLAIN    CLEAR     24  19  81 SW7       29.75R WCI  16
MITCHELL       PTCLDY    25  20  81 SW7       29.75F WCI  17
YANKTON        CLEAR     23  18  80 SW3       29.78F
$$

ABBREVIATIONS USED IN REMARKS
   TC - TEMPERATURE IN CELSIUS
  WCI - WIND CHILL INDEX
   HX - HEAT INDEX
  VSB - VISIBILITY




USA.gov is the U.S. government's official web portal to all federal, state and local government web resources and services.